Main page
METAR-TAF:

METAR-TAF

Airports :

South Texas International Airport at Edinburg

Edinburg, Texas, United States

latitude: 26-26-31N, longitude: 098-07-46W, elevation: 79 ft

Current weather observation

The report was made 15 minutes ago, at 18:55 UTC
Wind 17 mph from the South with gusts up to 23 mph
Temperature 75°F
Humidity 74%
Pressure 29.95 in. Hg
Visibility: 10 miles
Broken clouds at a height of 1500 ft

METAR: KEBG 181855Z AUTO 17015G20KT 10SM BKN015 24/19 A2995 RMK AO2 T02370186

Time: 13:10 (19:10 UTC)


TAF: missing

Weather observations and forecasts of more than 4000 airports (METAR and TAF reports).

The available stations are represented by yellow and red dots on the map.

Hover mouse over dot to see the name of the station.

Then click to see weather observations and forecasts.

To change the map : click on the green buttons with a black cross to zoom in, on the green button with a dash to zoom out, or on the green arrows for adjacent maps.


METAR-TAF: